Time,TemperatureF,DewpointF,PressureIn,WindDirection,WindDirectionDegrees,WindSpeedMPH,WindSpeedGustMPH,Humidity,HourlyPrecipIn,Conditions,Clouds,dailyrainin,SoftwareType,DateUTC
2013-01-29 00:00:00,45.8,45.0,29.97,South,169,0.0,-999.0,98,-99.99,,,0.38,weatherlink.com 1.10,2013-01-29 05:00:00,
2013-01-29 00:15:00,45.9,45.0,29.97,South,169,0.0,-999.0,98,-99.99,,,0.00,weatherlink.com 1.10,2013-01-29 05:15:00,
2013-01-29 00:30:00,46.2,46.0,29.96,SSE,165,0.0,-999.0,99,-99.99,,,0.00,weatherlink.com 1.10,2013-01-29 05:30:00,
2013-01-29 00:45:00,45.8,45.0,29.96,SSE,165,0.0,-999.0,98,-99.99,,,0.00,weatherlink.com 1.10,2013-01-29 05:45:00,
2013-01-29 01:00:00,45.7,45.0,29.95,SSE,163,2.0,-999.0,98,-99.99,,,0.00,weatherlink.com 1.10,2013-01-29 06:00:00,
2013-01-29 01:15:00,45.7,45.0,29.95,SSE,163,1.0,-999.0,98,-99.99,,,0.00,weatherlink.com 1.10,2013-01-29 06:15:00,
2013-01-29 01:30:00,46.2,46.0,29.94,SSE,163,2.0,-999.0,99,-99.99,,,0.00,weatherlink.com 1.10,2013-01-29 06:30:00,
2013-01-29 02:00:00,46.3,46.0,29.93,SE,143,3.0,-999.0,98,-99.99,,,0.01,weatherlink.com 1.10,2013-01-29 07:00:00,
2013-01-29 02:15:00,46.7,47.0,29.92,SSE,161,5.0,-999.0,99,-99.99,,,0.01,weatherlink.com 1.10,2013-01-29 07:15:00,
2013-01-29 02:30:00,47.4,47.0,29.92,SSE,161,4.0,-999.0,99,-99.99,,,0.01,weatherlink.com 1.10,2013-01-29 07:30:00,
2013-01-29 02:45:00,47.7,48.0,29.92,SSE,151,2.0,-999.0,99,-99.99,,,0.01,weatherlink.com 1.10,2013-01-29 07:45:00,
2013-01-29 03:00:00,48.3,48.0,29.91,SSE,164,3.0,-999.0,99,-99.99,,,0.01,weatherlink.com 1.10,2013-01-29 08:00:00,
2013-01-29 03:15:00,50.0,50.0,29.90,South,184,10.0,-999.0,99,-99.99,,,0.01,weatherlink.com 1.10,2013-01-29 08:15:00,
2013-01-29 03:30:00,51.0,51.0,29.89,South,178,5.0,-999.0,99,-99.99,,,0.02,weatherlink.com 1.10,2013-01-29 08:30:00,
2013-01-29 03:45:00,51.6,51.0,29.88,SSW,198,3.0,-999.0,99,-99.99,,,0.02,weatherlink.com 1.10,2013-01-29 08:45:00,
2013-01-29 04:00:00,52.4,52.0,29.88,SSW,207,16.0,-999.0,99,-99.99,,,0.02,weatherlink.com 1.10,2013-01-29 09:00:00,
2013-01-29 04:15:00,52.8,53.0,29.87,SSW,204,7.0,-999.0,99,-99.99,,,0.02,weatherlink.com 1.10,2013-01-29 09:15:00,
2013-01-29 04:30:00,52.8,53.0,29.87,South,187,13.0,-999.0,99,-99.99,,,0.02,weatherlink.com 1.10,2013-01-29 09:30:00,
2013-01-29 04:45:00,52.8,53.0,29.86,South,173,9.0,-999.0,99,-99.99,,,0.02,weatherlink.com 1.10,2013-01-29 09:45:00,
2013-01-29 05:00:00,53.0,53.0,29.86,South,180,12.0,-999.0,99,-99.99,,,0.02,weatherlink.com 1.10,2013-01-29 10:00:00,
2013-01-29 05:15:00,52.7,53.0,29.85,SW,223,12.0,-999.0,99,-99.99,,,0.02,weatherlink.com 1.10,2013-01-29 10:15:00,
2013-01-29 05:30:00,52.7,53.0,29.84,South,191,10.0,-999.0,99,-99.99,,,0.02,weatherlink.com 1.10,2013-01-29 10:30:00,
2013-01-29 05:45:00,52.8,53.0,29.84,SSE,167,10.0,-999.0,99,-99.99,,,0.02,weatherlink.com 1.10,2013-01-29 10:45:00,
2013-01-29 06:00:00,52.7,53.0,29.83,South,189,6.0,-999.0,99,-99.99,,,0.02,weatherlink.com 1.10,2013-01-29 11:00:00,
2013-01-29 06:15:00,52.8,53.0,29.83,South,190,10.0,-999.0,99,-99.99,,,0.02,weatherlink.com 1.10,2013-01-29 11:15:00,
2013-01-29 06:30:00,53.0,53.0,29.83,South,189,12.0,-999.0,99,-99.99,,,0.02,weatherlink.com 1.10,2013-01-29 11:30:00,
2013-01-29 06:45:00,53.5,53.0,29.83,SSW,207,16.0,-999.0,98,-99.99,,,0.02,weatherlink.com 1.10,2013-01-29 11:45:00,
2013-01-29 07:00:00,53.8,53.0,29.83,SSW,209,10.0,-999.0,98,-99.99,,,0.02,weatherlink.com 1.10,2013-01-29 12:00:00,
2013-01-29 07:15:00,54.0,53.0,29.82,SSW,207,16.0,-999.0,97,-99.99,,,0.02,weatherlink.com 1.10,2013-01-29 12:15:00,
2013-01-29 07:30:00,54.2,53.0,29.82,SSW,208,6.0,-999.0,97,-99.99,,,0.02,weatherlink.com 1.10,2013-01-29 12:30:00,
2013-01-29 07:45:00,54.2,53.0,29.82,SSW,202,7.0,-999.0,97,-99.99,,,0.02,weatherlink.com 1.10,2013-01-29 12:45:00,
2013-01-29 08:00:00,54.2,53.0,29.82,SSW,196,10.0,-999.0,96,-99.99,,,0.02,weatherlink.com 1.10,2013-01-29 13:00:00,
2013-01-29 08:15:00,54.1,53.0,29.83,SSW,207,16.0,-999.0,96,-99.99,,,0.02,weatherlink.com 1.10,2013-01-29 13:15:00,
2013-01-29 08:30:00,54.0,53.0,29.82,South,188,5.0,-999.0,96,-99.99,,,0.02,weatherlink.com 1.10,2013-01-29 13:30:00,
2013-01-29 08:45:00,53.9,53.0,29.82,SSW,201,9.0,-999.0,97,-99.99,,,0.02,weatherlink.com 1.10,2013-01-29 13:45:00,
2013-01-29 09:00:00,53.8,53.0,29.82,SSW,194,10.0,-999.0,97,-99.99,,,0.02,weatherlink.com 1.10,2013-01-29 14:00:00,
2013-01-29 09:15:00,53.8,53.0,29.82,SSW,194,7.0,-999.0,97,-99.99,,,0.02,weatherlink.com 1.10,2013-01-29 14:15:00,
2013-01-29 09:30:00,54.0,53.0,29.82,SSW,199,11.0,-999.0,97,-99.99,,,0.02,weatherlink.com 1.10,2013-01-29 14:30:00,
2013-01-29 09:45:00,54.1,53.0,29.82,SSW,199,9.0,-999.0,97,-99.99,,,0.02,weatherlink.com 1.10,2013-01-29 14:45:00,
2013-01-29 10:00:00,54.2,53.0,29.81,SSW,192,8.0,-999.0,97,-99.99,,,0.02,weatherlink.com 1.10,2013-01-29 15:00:00,
2013-01-29 10:15:00,54.5,54.0,29.81,SSW,213,9.0,-999.0,97,-99.99,,,0.02,weatherlink.com 1.10,2013-01-29 15:15:00,
2013-01-29 10:30:00,54.7,54.0,29.81,SSW,198,9.0,-999.0,97,-99.99,,,0.02,weatherlink.com 1.10,2013-01-29 15:30:00,
2013-01-29 10:45:00,54.8,54.0,29.81,South,179,11.0,-999.0,97,-99.99,,,0.02,weatherlink.com 1.10,2013-01-29 15:45:00,
2013-01-29 11:00:00,54.9,54.0,29.82,South,191,8.0,-999.0,97,-99.99,,,0.02,weatherlink.com 1.10,2013-01-29 16:00:00,
2013-01-29 11:15:00,55.0,54.0,29.82,SSW,196,7.0,-999.0,97,-99.99,,,0.02,weatherlink.com 1.10,2013-01-29 16:15:00,
2013-01-29 11:30:00,55.3,55.0,29.81,South,190,11.0,-999.0,97,-99.99,,,0.02,weatherlink.com 1.10,2013-01-29 16:30:00,
2013-01-29 11:45:00,55.5,54.0,29.80,South,185,9.0,-999.0,96,-99.99,,,0.02,weatherlink.com 1.10,2013-01-29 16:45:00,
2013-01-29 12:00:00,55.9,55.0,29.80,South,174,5.0,-999.0,96,-99.99,,,0.02,weatherlink.com 1.10,2013-01-29 17:00:00,
2013-01-29 12:15:00,56.4,55.0,29.79,SSW,200,7.0,-999.0,95,-99.99,,,0.02,weatherlink.com 1.10,2013-01-29 17:15:00,
2013-01-29 12:30:00,56.9,55.0,29.78,South,189,8.0,-999.0,94,-99.99,,,0.02,weatherlink.com 1.10,2013-01-29 17:30:00,
2013-01-29 12:45:00,57.5,56.0,29.77,SSW,208,11.0,-999.0,94,-99.99,,,0.02,weatherlink.com 1.10,2013-01-29 17:45:00,
2013-01-29 13:00:00,57.6,56.0,29.77,SSW,195,6.0,-999.0,93,-99.99,,,0.02,weatherlink.com 1.10,2013-01-29 18:00:00,
2013-01-29 13:15:00,57.7,56.0,29.76,SSW,199,8.0,-999.0,93,-99.99,,,0.02,weatherlink.com 1.10,2013-01-29 18:15:00,
2013-01-29 13:30:00,57.9,56.0,29.75,South,169,6.0,-999.0,92,-99.99,,,0.02,weatherlink.com 1.10,2013-01-29 18:30:00,
2013-01-29 13:45:00,57.9,56.0,29.73,South,179,8.0,-999.0,92,-99.99,,,0.02,weatherlink.com 1.10,2013-01-29 18:45:00,
2013-01-29 14:00:00,57.4,56.0,29.73,SSW,210,12.0,-999.0,94,-99.99,,,0.03,weatherlink.com 1.10,2013-01-29 19:00:00,
2013-01-29 14:15:00,57.0,56.0,29.72,SSE,165,5.0,-999.0,95,-99.99,,,0.03,weatherlink.com 1.10,2013-01-29 19:15:00,
2013-01-29 14:30:00,57.4,56.0,29.72,South,180,8.0,-999.0,95,-99.99,,,0.03,weatherlink.com 1.10,2013-01-29 19:30:00,
2013-01-29 14:45:00,58.1,56.0,29.71,SSW,196,12.0,-999.0,94,-99.99,,,0.03,weatherlink.com 1.10,2013-01-29 19:45:00,
2013-01-29 15:00:00,58.6,57.0,29.70,South,169,7.0,-999.0,93,-99.99,,,0.03,weatherlink.com 1.10,2013-01-29 20:00:00,
2013-01-29 15:15:00,58.8,57.0,29.70,South,188,15.0,-999.0,93,-99.99,,,0.03,weatherlink.com 1.10,2013-01-29 20:15:00,
2013-01-29 15:30:00,58.2,56.0,29.70,SSE,167,10.0,-999.0,92,-99.99,,,0.03,weatherlink.com 1.10,2013-01-29 20:30:00,
2013-01-29 15:45:00,57.9,56.0,29.70,South,170,11.0,-999.0,93,-99.99,,,0.03,weatherlink.com 1.10,2013-01-29 20:45:00,
2013-01-29 16:00:00,57.5,56.0,29.71,South,188,18.0,-999.0,93,-99.99,,,0.03,weatherlink.com 1.10,2013-01-29 21:00:00,
2013-01-29 16:15:00,57.3,55.0,29.70,South,184,7.0,-999.0,93,-99.99,,,0.03,weatherlink.com 1.10,2013-01-29 21:15:00,
2013-01-29 16:30:00,57.4,55.0,29.69,SSE,163,8.0,-999.0,93,-99.99,,,0.03,weatherlink.com 1.10,2013-01-29 21:30:00,
2013-01-29 16:45:00,57.6,55.0,29.68,South,182,15.0,-999.0,92,-99.99,,,0.03,weatherlink.com 1.10,2013-01-29 21:45:00,
2013-01-29 17:00:00,57.7,55.0,29.68,South,176,15.0,-999.0,91,-99.99,,,0.03,weatherlink.com 1.10,2013-01-29 22:00:00,
2013-01-29 17:15:00,57.5,55.0,29.67,SSE,165,8.0,-999.0,91,-99.99,,,0.03,weatherlink.com 1.10,2013-01-29 22:15:00,
2013-01-29 17:30:00,57.4,55.0,29.67,South,184,7.0,-999.0,91,-99.99,,,0.03,weatherlink.com 1.10,2013-01-29 22:30:00,
2013-01-29 17:45:00,57.5,55.0,29.68,SSW,195,5.0,-999.0,91,-99.99,,,0.03,weatherlink.com 1.10,2013-01-29 22:45:00,
2013-01-29 18:00:00,57.4,55.0,29.66,South,183,13.0,-999.0,91,-99.99,,,0.03,weatherlink.com 1.10,2013-01-29 23:00:00,
2013-01-29 18:15:00,57.4,55.0,29.65,South,174,8.0,-999.0,91,-99.99,,,0.03,weatherlink.com 1.10,2013-01-29 23:15:00,
2013-01-29 18:30:00,57.5,55.0,29.65,South,169,8.0,-999.0,91,-99.99,,,0.03,weatherlink.com 1.10,2013-01-29 23:30:00,
2013-01-29 18:45:00,57.7,55.0,29.65,SSE,162,7.0,-999.0,90,-99.99,,,0.03,weatherlink.com 1.10,2013-01-29 23:45:00,
2013-01-29 19:00:00,58.0,55.0,29.64,SSE,168,7.0,-999.0,90,-99.99,,,0.03,weatherlink.com 1.10,2013-01-30 00:00:00,
2013-01-29 19:15:00,58.0,55.0,29.63,South,180,11.0,-999.0,90,-99.99,,,0.03,weatherlink.com 1.10,2013-01-30 00:15:00,
2013-01-29 19:30:00,58.4,55.0,29.62,South,182,14.0,-999.0,89,-99.99,,,0.03,weatherlink.com 1.10,2013-01-30 00:30:00,
2013-01-29 19:45:00,58.5,55.0,29.62,SSW,193,16.0,-999.0,89,-99.99,,,0.03,weatherlink.com 1.10,2013-01-30 00:45:00,
2013-01-29 20:00:00,58.1,55.0,29.60,South,172,15.0,-999.0,90,-99.99,,,0.03,weatherlink.com 1.10,2013-01-30 01:00:00,
2013-01-29 20:15:00,57.8,55.0,29.59,South,169,14.0,-999.0,90,-99.99,,,0.03,weatherlink.com 1.10,2013-01-30 01:15:00,
2013-01-29 20:30:00,57.9,55.0,29.57,South,169,7.0,-999.0,91,-99.99,,,0.03,weatherlink.com 1.10,2013-01-30 01:30:00,
2013-01-29 20:46:00,58.0,55.0,29.56,South,176,9.0,-999.0,91,-99.99,,,0.03,weatherlink.com 1.10,2013-01-30 01:46:00,
2013-01-29 21:01:00,58.4,56.0,29.55,SSE,161,10.0,-999.0,90,-99.99,,,0.03,weatherlink.com 1.10,2013-01-30 02:01:00,
2013-01-29 21:15:00,58.5,56.0,29.54,SSE,155,10.0,-999.0,90,-99.99,,,0.03,weatherlink.com 1.10,2013-01-30 02:15:00,
2013-01-29 21:30:00,58.8,56.0,29.53,SSE,167,10.0,-999.0,90,-99.99,,,0.03,weatherlink.com 1.10,2013-01-30 02:30:00,
2013-01-29 21:45:00,58.9,56.0,29.52,South,170,16.0,-999.0,90,-99.99,,,0.03,weatherlink.com 1.10,2013-01-30 02:45:00,
2013-01-29 22:00:00,59.2,56.0,29.50,SSE,162,10.0,-999.0,90,-99.99,,,0.03,weatherlink.com 1.10,2013-01-30 03:00:00,
2013-01-29 22:15:00,59.8,57.0,29.49,SSE,167,16.0,-999.0,90,-99.99,,,0.03,weatherlink.com 1.10,2013-01-30 03:15:00,
2013-01-29 22:30:00,60.2,57.0,29.48,SSE,157,11.0,-999.0,89,-99.99,,,0.03,weatherlink.com 1.10,2013-01-30 03:30:00,
2013-01-29 22:45:00,60.4,57.0,29.46,SSW,194,9.0,-999.0,89,-99.99,,,0.03,weatherlink.com 1.10,2013-01-30 03:45:00,
2013-01-29 23:00:00,60.6,57.0,29.45,South,175,14.0,-999.0,88,-99.99,,,0.03,weatherlink.com 1.10,2013-01-30 04:00:00,
2013-01-29 23:15:00,60.6,57.0,29.43,South,175,21.0,-999.0,88,-99.99,,,0.03,weatherlink.com 1.10,2013-01-30 04:15:00,
2013-01-29 23:30:00,60.4,57.0,29.43,SSE,160,12.0,-999.0,89,-99.99,,,0.03,weatherlink.com 1.10,2013-01-30 04:30:00,
2013-01-29 23:45:00,60.0,57.0,29.41,SE,145,15.0,-999.0,89,-99.99,,,0.03,weatherlink.com 1.10,2013-01-30 04:45:00,